Location: Quebec
(46.8000°N, 71.2500°W)
Time: 01:54:00
(UTC-04:00)

Tiangong 1 - Pass Details

Date: 13 October 2017
Orbit: 294 x 320 km, 42.8° (Epoch: 17 October)

Event Time Altitude Azimuth Distance (km) Brightness Sun altitude
Rises 19:54:30 0° 266° (W) 2,038 6.2 -20.1°
Reaches altitude 10° 19:57:02 10° 240° (WSW) 1,200 4.2 -20.6°
Enters shadow 19:58:14 14° 214° (SW) 989 3.4 -20.8°
